Вернуться в каталог

STARLINK-11495

АктивенСвязьVLEO
NORAD 62275·PAYLOAD·🇺🇸 United States

Запущен Dec 8, 2024 с Cape Canaveral Space Force Station

Loading…

Ближайшие Пролёты (ближайшие 24 часа)

TLE

СвежийSource: CelesTrak SupGP

Эпоха: Sep 14, 2026, 13:54 UTC

1 62275C 24237J   26257.57965278  .00016941  00000+0  13168-3 0  2570
2 62275  43.0005 358.6794 0001540 263.8473  61.4610 15.70811860    17

Отслеживайте STARLINK-11495 в реальном времени с AllMySat

Download on the App Store